Time,TemperatureF,DewpointF,PressureIn,WindDirection,WindDirectionDegrees,WindSpeedMPH,WindSpeedGustMPH,Humidity,HourlyPrecipIn,Conditions,Clouds,dailyrainin,SoftwareType,DateUTC
2013-06-25 00:01:00,77.0,71.0,29.71,SE,128,3.0,11.0,83,0.00,,,0.01,,2013-06-25 05:01:00,
2013-06-25 00:11:00,76.0,70.0,29.71,ESE,114,1.0,9.0,83,0.00,,,0.01,,2013-06-25 05:11:00,
2013-06-25 00:22:00,77.0,71.0,29.71,SSE,161,7.0,12.0,82,0.00,,,0.01,,2013-06-25 05:22:00,
2013-06-25 00:32:00,77.0,71.0,29.71,SSE,148,5.0,12.0,81,0.00,,,0.01,,2013-06-25 05:32:00,
2013-06-25 00:44:00,77.0,70.0,29.72,SSE,155,4.0,10.0,80,0.00,,,0.01,,2013-06-25 05:44:00,
2013-06-25 00:52:00,77.0,70.0,29.72,South,173,5.0,10.0,80,0.00,,,0.01,,2013-06-25 05:52:00,
2013-06-25 01:01:00,77.0,70.0,29.72,SSE,147,4.0,9.0,79,0.00,,,0.01,,2013-06-25 06:01:00,
2013-06-25 01:11:00,77.0,70.0,29.72,SSE,165,4.0,9.0,80,0.00,,,0.01,,2013-06-25 06:11:00,
2013-06-25 01:21:00,77.0,70.0,29.72,SSE,161,3.0,8.0,80,0.00,,,0.01,,2013-06-25 06:21:00,
2013-06-25 01:33:00,76.0,70.0,29.72,SE,137,0.0,7.0,81,0.00,,,0.01,,2013-06-25 06:33:00,
2013-06-25 01:43:00,76.0,70.0,29.74,SE,138,0.0,2.0,81,0.00,,,0.01,,2013-06-25 06:43:00,
2013-06-25 01:52:00,76.0,70.0,29.76,ENE,67,0.0,4.0,83,0.00,,,0.01,,2013-06-25 06:52:00,
2013-06-25 02:02:00,75.0,70.0,29.76,ENE,67,0.0,0.0,84,0.00,,,0.01,,2013-06-25 07:02:00,
2013-06-25 02:11:00,75.0,71.0,29.77,NNE,19,1.0,4.0,86,0.00,,,0.01,,2013-06-25 07:11:00,
2013-06-25 02:22:00,75.0,71.0,29.78,NNE,12,2.0,4.0,86,0.00,,,0.01,,2013-06-25 07:22:00,
2013-06-25 02:33:00,75.0,71.0,29.77,North,5,1.0,5.0,86,0.00,,,0.01,,2013-06-25 07:33:00,
2013-06-25 02:52:00,75.0,71.0,29.76,West,260,0.0,0.0,86,0.00,,,0.01,,2013-06-25 07:52:00,
2013-06-25 03:01:00,74.0,70.0,29.76,West,260,0.0,1.0,86,0.00,,,0.01,,2013-06-25 08:01:00,
2013-06-25 03:11:00,74.0,70.0,29.75,West,260,0.0,0.0,87,0.00,,,0.01,,2013-06-25 08:11:00,
2013-06-25 03:21:00,74.0,70.0,29.75,West,260,0.0,1.0,88,0.00,,,0.01,,2013-06-25 08:21:00,
2013-06-25 03:34:00,73.0,69.0,29.74,WSW,256,0.0,3.0,88,0.00,,,0.01,,2013-06-25 08:34:00,
2013-06-25 03:43:00,72.0,69.0,29.74,SSE,165,0.0,4.0,90,0.00,,,0.01,,2013-06-25 08:43:00,
2013-06-25 03:52:00,72.0,69.0,29.74,SE,128,0.0,1.0,90,0.00,,,0.01,,2013-06-25 08:52:00,
2013-06-25 04:02:00,71.0,68.0,29.73,SE,128,0.0,0.0,91,0.00,,,0.01,,2013-06-25 09:02:00,
2013-06-25 04:12:00,71.0,69.0,29.72,SE,128,0.0,0.0,92,0.00,,,0.01,,2013-06-25 09:12:00,
2013-06-25 04:21:00,71.0,69.0,29.73,SE,128,0.0,1.0,92,0.00,,,0.01,,2013-06-25 09:21:00,
2013-06-25 04:33:00,71.0,69.0,29.72,SE,128,0.0,1.0,93,0.00,,,0.01,,2013-06-25 09:33:00,
2013-06-25 04:43:00,71.0,69.0,29.73,SE,128,0.0,1.0,92,0.00,,,0.01,,2013-06-25 09:43:00,
2013-06-25 04:52:00,70.0,68.0,29.72,SE,129,0.0,2.0,93,0.00,,,0.01,,2013-06-25 09:52:00,
2013-06-25 05:01:00,70.0,68.0,29.72,SE,130,0.0,1.0,94,0.00,,,0.01,,2013-06-25 10:01:00,
2013-06-25 05:11:00,71.0,69.0,29.72,SE,129,0.0,0.0,93,0.00,,,0.01,,2013-06-25 10:11:00,
2013-06-25 05:21:00,71.0,69.0,29.71,SE,126,0.0,2.0,93,0.00,,,0.01,,2013-06-25 10:21:00,
2013-06-25 05:33:00,70.0,68.0,29.71,SE,126,0.0,0.0,92,0.00,,,0.01,,2013-06-25 10:33:00,
2013-06-25 05:42:00,70.0,68.0,29.70,SE,126,0.0,2.0,93,0.00,,,0.01,,2013-06-25 10:42:00,
2013-06-25 05:52:00,70.0,68.0,29.71,SE,126,0.0,4.0,93,0.00,,,0.01,,2013-06-25 10:52:00,
2013-06-25 06:02:00,70.0,68.0,29.71,SE,126,0.0,1.0,93,0.00,,,0.01,,2013-06-25 11:02:00,
2013-06-25 06:11:00,71.0,69.0,29.72,SE,126,0.0,1.0,94,0.00,,,0.01,,2013-06-25 11:11:00,
2013-06-25 06:22:00,71.0,69.0,29.72,SSE,153,0.0,4.0,95,0.00,,,0.01,,2013-06-25 11:22:00,
2013-06-25 06:34:00,72.0,70.0,29.73,SSE,152,0.0,4.0,94,0.00,,,0.01,,2013-06-25 11:34:00,
2013-06-25 06:43:00,72.0,70.0,29.72,SSW,192,0.0,5.0,93,0.00,,,0.01,,2013-06-25 11:43:00,
2013-06-25 06:52:00,72.0,70.0,29.74,SSW,192,1.0,3.0,92,0.00,,,0.01,,2013-06-25 11:52:00,
2013-06-25 07:01:00,73.0,71.0,29.75,SSW,192,0.0,4.0,92,0.00,,,0.01,,2013-06-25 12:01:00,
2013-06-25 07:11:00,73.0,70.0,29.76,SSW,192,0.0,2.0,91,0.00,,,0.01,,2013-06-25 12:11:00,
2013-06-25 07:22:00,73.0,70.0,29.76,SSW,192,0.0,0.0,91,0.00,,,0.01,,2013-06-25 12:22:00,
2013-06-25 07:33:00,73.0,71.0,29.77,SSW,192,1.0,2.0,92,0.00,,,0.01,,2013-06-25 12:33:00,
2013-06-25 07:43:00,73.0,71.0,29.78,NE,45,0.0,4.0,92,0.00,,,0.01,,2013-06-25 12:43:00,
2013-06-25 07:55:00,73.0,71.0,29.77,NE,46,0.0,7.0,92,0.00,,,0.01,,2013-06-25 12:55:00,
2013-06-25 08:01:00,72.0,70.0,29.77,SE,131,0.0,8.0,93,0.00,,,0.01,,2013-06-25 13:01:00,
2013-06-25 08:11:00,72.0,70.0,29.75,SSE,157,3.0,9.0,93,0.00,,,0.01,,2013-06-25 13:11:00,
2013-06-25 08:22:00,72.0,69.0,29.76,SSW,192,9.0,12.0,90,0.00,,,0.01,,2013-06-25 13:22:00,
2013-06-25 08:34:00,72.0,68.0,29.76,SSW,203,7.0,15.0,86,0.00,,,0.01,,2013-06-25 13:34:00,
2013-06-25 08:42:00,73.0,68.0,29.74,South,182,5.0,11.0,84,0.00,,,0.01,,2013-06-25 13:42:00,
2013-06-25 08:53:00,73.0,68.0,29.75,SSW,196,2.0,8.0,84,0.00,,,0.01,,2013-06-25 13:53:00,
2013-06-25 09:01:00,73.0,68.0,29.74,South,188,0.0,6.0,84,0.00,,,0.01,,2013-06-25 14:01:00,
2013-06-25 09:11:00,74.0,68.0,29.75,South,188,0.0,1.0,83,0.00,,,0.01,,2013-06-25 14:11:00,
2013-06-25 09:22:00,75.0,68.0,29.74,SSE,167,0.0,3.0,79,0.00,,,0.01,,2013-06-25 14:22:00,
2013-06-25 09:34:00,77.0,68.0,29.73,SSE,159,2.0,5.0,75,0.00,,,0.01,,2013-06-25 14:34:00,
2013-06-25 09:43:00,79.0,69.0,29.73,SSE,161,1.0,8.0,72,0.00,,,0.01,,2013-06-25 14:43:00,
2013-06-25 09:53:00,80.0,69.0,29.73,SSE,152,4.0,8.0,70,0.00,,,0.01,,2013-06-25 14:53:00,
2013-06-25 10:01:00,80.0,68.0,29.74,SSE,158,2.0,8.0,68,0.00,,,0.01,,2013-06-25 15:01:00,
2013-06-25 10:11:00,81.0,70.0,29.74,SSE,162,1.0,6.0,69,0.00,,,0.01,,2013-06-25 15:11:00,
2013-06-25 10:22:00,81.0,71.0,29.74,SE,138,1.0,5.0,71,0.00,,,0.01,,2013-06-25 15:22:00,
2013-06-25 10:32:00,82.0,69.0,29.73,East,81,4.0,8.0,66,0.00,,,0.01,,2013-06-25 15:32:00,
2013-06-25 10:44:00,82.0,69.0,29.74,SSE,167,0.0,6.0,66,0.00,,,0.01,,2013-06-25 15:44:00,
2013-06-25 10:53:00,83.0,72.0,29.74,ESE,110,4.0,7.0,69,0.00,,,0.01,,2013-06-25 15:53:00,
2013-06-25 11:03:00,83.0,71.0,29.74,SE,125,0.0,11.0,68,0.00,,,0.00,,2013-06-25 16:03:00,
2013-06-25 11:12:00,82.0,72.0,29.73,ESE,121,7.0,13.0,71,0.00,,,0.00,,2013-06-25 16:12:00,
2013-06-25 11:23:00,82.0,71.0,29.73,ESE,110,11.0,15.0,70,0.00,,,0.00,,2013-06-25 16:23:00,
2013-06-25 11:35:00,83.0,73.0,29.72,ESE,115,8.0,14.0,71,0.00,,,0.00,,2013-06-25 16:35:00,
2013-06-25 11:44:00,83.0,73.0,29.72,ESE,117,8.0,16.0,71,0.00,,,0.00,,2013-06-25 16:44:00,
2013-06-25 11:52:00,83.0,72.0,29.71,ESE,110,12.0,16.0,70,0.00,,,0.00,,2013-06-25 16:52:00,
2013-06-25 12:01:00,84.0,73.0,29.71,SE,128,7.0,15.0,70,0.00,,,0.00,,2013-06-25 17:01:00,
2013-06-25 12:11:00,84.0,73.0,29.70,ESE,123,6.0,13.0,70,0.00,,,0.00,,2013-06-25 17:11:00,
2013-06-25 12:22:00,84.0,72.0,29.70,SE,143,6.0,21.0,68,0.00,,,0.00,,2013-06-25 17:22:00,
2013-06-25 12:33:00,83.0,73.0,29.70,ESE,119,2.0,16.0,72,0.00,,,0.00,,2013-06-25 17:33:00,
2013-06-25 12:44:00,84.0,74.0,29.70,ESE,115,6.0,18.0,72,0.00,,,0.00,,2013-06-25 17:44:00,
2013-06-25 12:53:00,85.0,75.0,29.70,SE,144,9.0,18.0,71,0.00,,,0.00,,2013-06-25 17:53:00,
2013-06-25 13:02:00,85.0,74.0,29.69,SSE,160,5.0,12.0,70,0.00,,,0.00,,2013-06-25 18:02:00,
2013-06-25 13:12:00,86.0,75.0,29.69,SE,142,8.0,15.0,69,0.00,,,0.00,,2013-06-25 18:12:00,
2013-06-25 13:22:00,85.0,75.0,29.68,SSE,148,7.0,19.0,72,0.00,,,0.00,,2013-06-25 18:22:00,
2013-06-25 13:34:00,86.0,75.0,29.68,SSE,159,9.0,12.0,69,0.00,,,0.00,,2013-06-25 18:34:00,
2013-06-25 13:44:00,85.0,75.0,29.68,SE,130,4.0,11.0,72,0.00,,,0.00,,2013-06-25 18:44:00,
2013-06-25 13:52:00,84.0,76.0,29.67,SE,146,7.0,12.0,76,0.00,,,0.00,,2013-06-25 18:52:00,
2013-06-25 14:01:00,85.0,75.0,29.67,South,179,7.0,11.0,73,0.00,,,0.00,,2013-06-25 19:01:00,
2013-06-25 14:12:00,85.0,75.0,29.67,SSE,161,8.0,17.0,72,0.00,,,0.00,,2013-06-25 19:12:00,
2013-06-25 14:22:00,85.0,76.0,29.67,SSE,160,7.0,12.0,75,0.00,,,0.00,,2013-06-25 19:22:00,
2013-06-25 14:33:00,85.0,75.0,29.67,SSE,156,6.0,14.0,71,0.00,,,0.00,,2013-06-25 19:33:00,
2013-06-25 14:44:00,85.0,76.0,29.66,SSW,196,2.0,10.0,74,0.00,,,0.00,,2013-06-25 19:44:00,
2013-06-25 14:53:00,85.0,75.0,29.67,SE,133,9.0,13.0,72,0.00,,,0.00,,2013-06-25 19:53:00,
2013-06-25 15:02:00,85.0,75.0,29.66,SSE,166,7.0,13.0,73,0.00,,,0.00,,2013-06-25 20:02:00,
2013-06-25 15:11:00,84.0,74.0,29.66,South,173,5.0,15.0,73,0.00,,,0.00,,2013-06-25 20:11:00,
2013-06-25 15:22:00,84.0,74.0,29.66,SSE,153,3.0,13.0,73,0.00,,,0.00,,2013-06-25 20:22:00,
2013-06-25 15:33:00,84.0,75.0,29.66,South,175,6.0,12.0,74,0.00,,,0.00,,2013-06-25 20:33:00,
2013-06-25 15:42:00,84.0,74.0,29.66,SSE,159,9.0,11.0,73,0.00,,,0.00,,2013-06-25 20:42:00,
2013-06-25 15:52:00,84.0,75.0,29.66,SSE,154,4.0,10.0,75,0.00,,,0.00,,2013-06-25 20:52:00,
2013-06-25 16:01:00,85.0,75.0,29.66,SSW,207,5.0,12.0,73,0.00,,,0.00,,2013-06-25 21:01:00,
2013-06-25 16:11:00,85.0,76.0,29.66,SSE,166,2.0,8.0,74,0.00,,,0.00,,2013-06-25 21:11:00,
2013-06-25 16:22:00,85.0,76.0,29.65,SSE,158,2.0,7.0,74,0.00,,,0.00,,2013-06-25 21:22:00,
2013-06-25 16:33:00,85.0,76.0,29.65,SSE,155,4.0,8.0,75,0.00,,,0.00,,2013-06-25 21:33:00,
2013-06-25 16:43:00,84.0,76.0,29.65,SSE,154,0.0,6.0,76,0.00,,,0.00,,2013-06-25 21:43:00,
2013-06-25 16:53:00,84.0,76.0,29.65,SSE,152,0.0,5.0,78,0.00,,,0.00,,2013-06-25 21:53:00,
2013-06-25 17:01:00,84.0,77.0,29.65,SSE,153,0.0,4.0,79,0.00,,,0.00,,2013-06-25 22:01:00,
2013-06-25 17:11:00,84.0,78.0,29.68,SSE,153,0.0,1.0,81,0.00,,,0.00,,2013-06-25 22:11:00,
2013-06-25 17:22:00,84.0,77.0,29.68,SE,129,0.0,4.0,80,0.00,,,0.00,,2013-06-25 22:22:00,
2013-06-25 17:33:00,84.0,77.0,29.67,ESE,103,4.0,6.0,80,0.00,,,0.00,,2013-06-25 22:33:00,
2013-06-25 17:42:00,84.0,78.0,29.67,ESE,113,4.0,6.0,82,0.00,,,0.00,,2013-06-25 22:42:00,
2013-06-25 17:52:00,84.0,78.0,29.67,ESE,107,0.0,5.0,82,0.00,,,0.00,,2013-06-25 22:52:00,
2013-06-25 18:01:00,86.0,79.0,29.67,ESE,112,7.0,8.0,81,0.00,,,0.00,,2013-06-25 23:01:00,
2013-06-25 18:11:00,86.0,79.0,29.66,SE,138,0.0,10.0,80,0.00,,,0.00,,2013-06-25 23:11:00,
2013-06-25 18:22:00,85.0,77.0,29.66,SSE,153,4.0,7.0,78,0.00,,,0.00,,2013-06-25 23:22:00,
2013-06-25 18:34:00,85.0,78.0,29.66,SSE,159,4.0,9.0,79,0.00,,,0.00,,2013-06-25 23:34:00,
2013-06-25 18:43:00,85.0,77.0,29.66,SSE,148,4.0,7.0,78,0.00,,,0.00,,2013-06-25 23:43:00,
2013-06-25 18:52:00,86.0,78.0,29.66,SSE,155,3.0,7.0,77,0.00,,,0.00,,2013-06-25 23:52:00,
2013-06-25 19:02:00,86.0,78.0,29.66,SSE,150,2.0,6.0,77,0.00,,,0.00,,2013-06-26 00:02:00,
2013-06-25 19:11:00,86.0,78.0,29.66,SSE,151,1.0,7.0,77,0.00,,,0.00,,2013-06-26 00:11:00,
2013-06-25 19:22:00,86.0,78.0,29.66,SSE,153,2.0,8.0,77,0.00,,,0.00,,2013-06-26 00:22:00,
2013-06-25 19:33:00,86.0,79.0,29.66,SE,139,0.0,6.0,80,0.00,,,0.00,,2013-06-26 00:33:00,
2013-06-25 19:42:00,85.0,78.0,29.66,SSE,161,0.0,6.0,80,0.00,,,0.00,,2013-06-26 00:42:00,
2013-06-25 19:52:00,85.0,78.0,29.66,SSE,158,2.0,7.0,80,0.00,,,0.00,,2013-06-26 00:52:00,
2013-06-25 20:01:00,85.0,78.0,29.66,SSE,153,1.0,7.0,80,0.00,,,0.00,,2013-06-26 01:01:00,
2013-06-25 20:11:00,84.0,78.0,29.66,SSE,154,0.0,7.0,81,0.00,,,0.00,,2013-06-26 01:11:00,
2013-06-25 20:22:00,84.0,78.0,29.66,SSE,150,0.0,6.0,81,0.00,,,0.00,,2013-06-26 01:22:00,
2013-06-25 20:33:00,83.0,77.0,29.66,SE,131,1.0,4.0,82,0.00,,,0.00,,2013-06-26 01:33:00,
2013-06-25 20:43:00,83.0,77.0,29.66,SE,126,0.0,5.0,83,0.00,,,0.00,,2013-06-26 01:43:00,
2013-06-25 20:52:00,82.0,77.0,29.66,ESE,116,0.0,8.0,84,0.00,,,0.00,,2013-06-26 01:52:00,
2013-06-25 21:02:00,82.0,77.0,29.66,ESE,112,0.0,5.0,84,0.00,,,0.00,,2013-06-26 02:02:00,
2013-06-25 21:11:00,81.0,76.0,29.66,ESE,122,0.0,8.0,85,0.00,,,0.00,,2013-06-26 02:11:00,
2013-06-25 21:22:00,81.0,76.0,29.66,ESE,121,0.0,4.0,85,0.00,,,0.00,,2013-06-26 02:22:00,
2013-06-25 21:34:00,80.0,75.0,29.66,ESE,120,0.0,4.0,86,0.00,,,0.00,,2013-06-26 02:34:00,
2013-06-25 21:43:00,80.0,76.0,29.66,SSE,159,0.0,5.0,87,0.00,,,0.00,,2013-06-26 02:43:00,
2013-06-25 21:53:00,80.0,76.0,29.67,SE,138,0.0,5.0,87,0.00,,,0.00,,2013-06-26 02:53:00,
2013-06-25 22:02:00,80.0,76.0,29.67,SE,139,0.0,1.0,87,0.00,,,0.00,,2013-06-26 03:02:00,
2013-06-25 22:11:00,80.0,76.0,29.67,SE,137,0.0,2.0,87,0.00,,,0.00,,2013-06-26 03:11:00,
2013-06-25 22:22:00,79.0,75.0,29.68,SE,138,0.0,1.0,88,0.00,,,0.00,,2013-06-26 03:22:00,
2013-06-25 22:33:00,79.0,75.0,29.67,SE,140,0.0,5.0,88,0.00,,,0.00,,2013-06-26 03:33:00,
2013-06-25 22:43:00,79.0,75.0,29.68,SSE,159,0.0,7.0,88,0.00,,,0.00,,2013-06-26 03:43:00,
2013-06-25 22:52:00,79.0,75.0,29.68,SSE,159,0.0,4.0,88,0.00,,,0.00,,2013-06-26 03:52:00,
2013-06-25 23:01:00,79.0,75.0,29.68,SSE,159,0.0,1.0,88,0.00,,,0.00,,2013-06-26 04:01:00,
2013-06-25 23:12:00,80.0,76.0,29.68,SSE,158,0.0,5.0,88,0.00,,,0.00,,2013-06-26 04:12:00,
2013-06-25 23:22:00,80.0,76.0,29.68,SSE,158,0.0,5.0,88,0.00,,,0.00,,2013-06-26 04:22:00,
2013-06-25 23:33:00,80.0,76.0,29.68,SSE,156,0.0,5.0,87,0.00,,,0.00,,2013-06-26 04:33:00,
2013-06-25 23:43:00,80.0,76.0,29.68,SSE,163,3.0,6.0,87,0.00,,,0.00,,2013-06-26 04:43:00,
2013-06-25 23:53:00,80.0,75.0,29.67,SE,146,2.0,8.0,86,0.00,,,0.00,,2013-06-26 04:53:00,